GW1321 Weather Reports


time (UTC)temp
C
wind
direction
speed
KPH
gust
KPH
rain 1hr
cm
rain 24hr
cm
rain mn
cm
humidity
%
barometer
mb
20260507021033 10 0 0.0 0.0 0.00 0.03 0.03 81 1016.7
20260507020528 10 0 0.0 0.0 0.00 0.03 0.03 80 1016.7
20260507020050 10 0 0.0 0.0 0.00 0.03 0.03 80 1016.6
20260507015527 10 0 0.0 0.0 0.00 0.03 0.03 79 1016.6
20260507015031 10 0 0.0 0.0 0.00 0.03 0.03 81 1016.6
20260507014541 10 0 0.0 0.0 0.00 0.03 0.03 80 1016.5
20260507014031 10 0 0.0 0.0 0.00 0.03 0.03 78 1016.5
20260507013530 10 0 0.0 0.0 0.00 0.03 0.03 75 1016.3
20260507013040 10 0 0.0 0.0 0.00 0.03 0.03 77 1016.2
20260507012533 11 0 0.0 0.0 0.00 0.03 0.03 75 1016.3
20260507012031 11 0 0.0 0.0 0.00 0.03 0.03 75 1016.3
20260507011547 11 0 0.0 0.0 0.00 0.03 0.03 75 1016.2
20260507011031 11 0 0.0 0.0 0.00 0.03 0.03 73 1016.3
20260507010530 11 0 0.0 0.0 0.00 0.03 0.03 72 1016.1
20260507010044 12 0 0.0 0.0 0.00 0.03 0.03 72 1016.2
20260507005532 12 0 0.0 0.0 0.00 0.03 0.03 70 1016.1
20260507005032 12 0 0.0 0.0 0.00 0.03 0.03 71 1016.1
20260507004544 12 0 0.0 0.0 0.00 0.03 0.03 71 1016.1
20260507004031 12 0 0.0 0.0 0.00 0.03 0.03 67 1016.2
20260507003532 12 0 0.0 3.2 0.00 0.03 0.03 67 1016.1
20260507003040 12 0 0.0 3.2 0.00 0.03 0.03 65 1016.0
20260507002530 12 360 1.6 3.2 0.00 0.03 0.03 66 1015.9
20260507002031 12 0 0.0 3.2 0.00 0.03 0.03 66 1016.0
20260507001609 13 0 0.0 3.2 0.00 0.03 0.03 66 1015.8
20260507001033 13 0 0.0 1.6 0.00 0.03 0.03 65 1016.0
20260507000530 13 0 0.0 3.2 0.00 0.03 0.03 65 1015.9
20260507000043 13 0 0.0 4.8 0.00 0.03 0.03 64 1015.9
20260506235534 13 360 1.6 4.8 0.00 0.03 0.03 63 1015.9
20260506235031 13 360 0.0 4.8 0.00 0.03 0.03 64 1015.9
20260506234551 13 360 1.6 4.8 0.00 0.03 0.03 63 1015.8
20260506234032 13 360 3.2 4.8 0.00 0.03 0.03 64 1015.8
20260506233532 13 360 0.0 4.8 0.00 0.03 0.03 65 1015.7
20260506233043 13 360 0.0 3.2 0.00 0.03 0.03 67 1015.6
20260506232531 13 0 0.0 1.6 0.00 0.03 0.03 67 1015.6
20260506232031 13 0 0.0 3.2 0.00 0.03 0.03 68 1015.6
20260506231543 13 0 0.0 4.8 0.00 0.03 0.03 66 1015.5
20260506231029 13 360 1.6 4.8 0.00 0.03 0.03 65 1015.4
20260506230532 13 360 1.6 4.8 0.00 0.03 0.03 69 1015.1
20260506230053 13 0 1.6 4.8 0.00 0.03 0.03 67 1015.0
20260506225530 13 360 1.6 6.4 0.00 0.03 0.03 66 1015.0
20260506225029 13 360 3.2 6.4 0.00 0.03 0.03 66 1014.9
20260506224544 13 360 3.2 6.4 0.00 0.03 0.03 66 1014.6
20260506224029 13 360 1.6 6.4 0.00 0.03 0.03 67 1014.6
20260506223529 13 360 3.2 6.4 0.00 0.03 0.03 66 1014.3
20260506223041 13 360 1.6 6.4 0.00 0.03 0.03 68 1014.3
20260506222532 13 360 1.6 8.0 0.00 0.03 0.03 69 1014.4
20260506222030 13 360 1.6 8.0 0.00 0.03 0.03 67 1014.6
20260506221551 13 360 1.6 6.4 0.00 0.03 0.03 69 1014.5
20260506221028 13 360 1.6 6.4 0.00 0.03 0.03 68 1014.6
20260506220528 13 360 3.2 6.4 0.00 0.03 0.03 68 1014.5
20260506220043 13 0 0.0 4.8 0.00 0.03 0.03 69 1014.7
20260506215527 13 360 1.6 6.4 0.00 0.03 0.03 67 1014.8
20260506215027 13 0 1.6 9.7 0.00 0.03 0.03 67 1015.0
20260506214541 13 360 3.2 9.7 0.00 0.03 0.03 67 1015.0
20260506214027 13 360 4.8 9.7 0.00 0.03 0.03 68 1015.0
20260506213527 13 360 1.6 4.8 0.00 0.03 0.03 68 1015.0
20260506213040 13 360 1.6 4.8 0.00 0.03 0.03 68 1015.0
20260506212526 13 0 0.0 6.4 0.00 0.03 0.03 71 1015.1
20260506212029 13 360 1.6 6.4 0.00 0.03 0.03 69 1015.0
20260506211540 13 360 1.6 6.4 0.00 0.03 0.03 69 1015.1
20260506211029 13 360 1.6 6.4 0.00 0.03 0.03 69 1015.2
20260506210532 12 360 1.6 4.8 0.00 0.03 0.03 70 1015.1
20260506210053 12 0 1.6 6.4 0.00 0.03 0.03 69 1015.2
20260506205528 12 360 1.6 6.4 0.00 0.03 0.03 71 1015.3
20260506205030 12 360 1.6 4.8 0.00 0.03 0.03 69 1015.4
20260506204547 12 360 0.0 4.8 0.00 0.03 0.03 71 1015.6
20260506204027 12 360 1.6 4.8 0.00 0.03 0.03 70 1015.7
20260506203530 12 0 0.0 3.2 0.00 0.03 0.03 73 1015.7
20260506203043 12 360 0.0 3.2 0.00 0.03 0.03 73 1015.7
20260506202532 12 0 0.0 4.8 0.00 0.03 0.03 72 1016.0
20260506202028 12 0 0.0 6.4 0.00 0.03 0.03 70 1016.0
20260506201538 12 0 1.6 6.4 0.00 0.03 0.03 69 1016.0
20260506201032 13 360 1.6 4.8 0.00 0.03 0.03 69 1016.1
20260506200527 13 360 0.0 4.8 0.00 0.03 0.03 68 1016.3
20260506200040 12 360 1.6 4.8 0.00 0.03 0.03 71 1016.4
20260506195530 12 0 1.6 4.8 0.00 0.05 0.03 70 1016.4
20260506195030 12 0 0.0 4.8 0.00 0.05 0.03 72 1016.3
20260506194542 12 0 1.6 4.8 0.00 0.05 0.03 72 1016.3
20260506194029 12 360 0.0 4.8 0.00 0.05 0.03 74 1016.3
20260506193529 12 0 0.0 0.0 0.00 0.05 0.03 73 1016.3
20260506193044 12 0 0.0 0.0 0.00 0.05 0.03 71 1016.4
20260506192528 12 0 0.0 0.0 0.00 0.05 0.03 71 1016.5
20260506192028 12 0 0.0 0.0 0.00 0.05 0.03 71 1016.6
20260506191542 12 0 0.0 3.2 0.00 0.05 0.03 71 1016.6
20260506191032 12 0 0.0 4.8 0.00 0.05 0.03 72 1016.3
20260506190532 12 0 0.0 6.4 0.00 0.05 0.03 72 1016.6
20260506190040 12 360 3.2 6.4 0.00 0.05 0.03 71 1016.4
20260506185531 12 0 1.6 4.8 0.00 0.08 0.03 74 1016.3
20260506185031 12 360 1.6 4.8 0.00 0.08 0.03 73 1016.6
20260506184549 11 360 0.0 4.8 0.00 0.08 0.03 72 1016.8
20260506184028 11 360 0.0 4.8 0.00 0.08 0.03 71 1016.7
20260506183530 11 360 1.6 8.0 0.00 0.08 0.03 73 1016.5
20260506183045 11 360 3.2 8.0 0.00 0.08 0.03 71 1017.0
20260506182527 11 360 1.6 6.4 0.00 0.08 0.03 71 1017.1
20260506182029 11 360 3.2 6.4 0.00 0.08 0.03 72 1017.1
20260506181549 11 360 1.6 6.4 0.00 0.08 0.03 72 1017.2
20260506181032 11 360 1.6 6.4 0.00 0.08 0.03 73 1017.4
20260506180533 11 360 1.6 6.4 0.00 0.08 0.03 73 1017.4
20260506180040 11 360 0.0 6.4 0.00 0.08 0.03 76 1017.5
20260506175533 11 360 3.2 6.4 0.00 0.08 0.03 72 1017.6
20260506175031 11 360 3.2 6.4 0.00 0.08 0.03 74 1017.7
20260506174541 11 360 3.2 6.4 0.00 0.08 0.03 73 1017.7
20260506174031 11 360 3.2 6.4 0.00 0.08 0.03 74 1017.7
20260506173530 10 360 1.6 6.4 0.00 0.08 0.03 75 1017.6
20260506173046 10 360 1.6 6.4 0.00 0.08 0.03 76 1017.9
20260506172530 10 360 1.6 6.4 0.00 0.08 0.03 74 1018.0
20260506172030 10 360 1.6 6.4 0.00 0.08 0.03 78 1017.9
20260506171541 10 360 0.0 4.8 0.00 0.08 0.03 79 1017.8
20260506171030 10 0 1.6 4.8 0.00 0.08 0.03 81 1017.6
20260506170531 10 0 0.0 4.8 0.00 0.08 0.03 82 1017.5
20260506170052 9 0 0.0 6.4 0.00 0.08 0.03 82 1017.6
20260506165532 9 360 0.0 6.4 0.00 0.08 0.03 80 1017.4
20260506165030 9 360 0.0 4.8 0.00 0.08 0.03 82 1017.5
20260506164554 9 360 1.6 4.8 0.00 0.08 0.03 82 1017.3
20260506164031 9 360 0.0 4.8 0.00 0.08 0.03 81 1017.2
20260506163530 9 0 0.0 4.8 0.00 0.08 0.03 83 1017.0
20260506163045 9 360 1.6 6.4 0.00 0.08 0.03 81 1017.3
20260506162530 8 360 1.6 6.4 0.00 0.08 0.03 81 1017.2
20260506162031 8 360 0.0 4.8 0.00 0.08 0.03 82 1017.2
20260506161540 8 360 1.6 6.4 0.00 0.08 0.03 81 1017.2
20260506161029 8 360 1.6 12.9 0.00 0.08 0.03 82 1017.1
20260506160528 8 360 4.8 12.9 0.00 0.08 0.03 81 1016.7
20260506160055 8 360 1.6 8.0 0.00 0.08 0.03 83 1016.7
20260506155532 8 360 4.8 8.0 0.00 0.08 0.03 83 1016.6
20260506155030 8 360 3.2 8.0 0.00 0.08 0.03 84 1016.6
20260506154544 8 360 4.8 8.0 0.00 0.08 0.03 83 1016.8
20260506154030 8 360 4.8 8.0 0.00 0.08 0.03 83 1016.7
20260506153530 8 0 1.6 6.4 0.00 0.08 0.03 85 1017.1
20260506153040 8 360 1.6 6.4 0.00 0.08 0.03 85 1017.0
20260506152530 8 360 1.6 6.4 0.00 0.08 0.03 86 1017.2
20260506152029 8 360 3.2 6.4 0.00 0.08 0.03 86 1017.1
20260506151544 8 360 3.2 8.0 0.00 0.08 0.03 85 1016.7
20260506151032 8 360 4.8 8.0 0.00 0.08 0.03 84 1016.7
20260506150530 8 360 3.2 6.4 0.00 0.08 0.03 87 1016.6
20260506150049 8 360 1.6 6.4 0.00 0.08 0.03 87 1016.7
20260506145530 8 360 3.2 6.4 0.00 0.08 0.03 87 1016.6
20260506145030 8 360 1.6 6.4 0.00 0.08 0.03 88 1016.8
20260506144542 8 360 3.2 6.4 0.00 0.08 0.03 87 1016.7
20260506144028 8 360 3.2 6.4 0.00 0.08 0.03 89 1016.5
20260506143531 7 360 3.2 6.4 0.00 0.08 0.03 89 1016.3
20260506143042 7 360 1.6 6.4 0.00 0.08 0.03 90 1016.3
20260506142530 7 360 1.6 6.4 0.00 0.08 0.03 90 1016.3
20260506142030 7 360 1.6 4.8 0.00 0.08 0.03 90 1016.1
20260506141544 7 360 1.6 6.4 0.00 0.08 0.03 90 1016.4
20260506141030 7 360 1.6 6.4 0.00 0.08 0.03 90 1016.5
20260506140533 7 360 1.6 4.8 0.00 0.08 0.03 90 1016.3
20260506140041 7 360 1.6 4.8 0.00 0.08 0.03 90 1016.3
20260506135529 7 360 1.6 6.4 0.00 0.08 0.03 90 1016.4
20260506135033 7 360 1.6 8.0 0.00 0.08 0.03 90 1016.5
20260506134545 7 360 3.2 8.0 0.00 0.08 0.03 90 1016.5
20260506134030 7 360 1.6 8.0 0.00 0.08 0.03 90 1016.3
20260506133530 7 360 1.6 8.0 0.00 0.08 0.03 91 1016.2
20260506133056 6 360 3.2 8.0 0.00 0.08 0.03 91 1016.3
20260506132532 6 360 1.6 6.4 0.00 0.08 0.03 92 1016.1
20260506132030 6 360 3.2 6.4 0.00 0.08 0.03 91 1016.4
20260506131542 6 360 3.2 6.4 0.00 0.08 0.03 92 1016.3
20260506131030 6 360 3.2 6.4 0.00 0.08 0.03 92 1016.3
20260506130533 6 360 1.6 8.0 0.00 0.08 0.03 92 1016.3
20260506130041 6 360 3.2 8.0 0.00 0.08 0.03 92 1016.3
20260506125531 6 360 1.6 6.4 0.00 0.08 0.03 92 1016.2
20260506125030 6 360 1.6 6.4 0.00 0.08 0.03 92 1016.2
20260506124541 6 360 3.2 8.0 0.00 0.08 0.03 92 1016.0
20260506124029 6 360 3.2 8.0 0.00 0.08 0.03 92 1016.0
20260506123531 6 360 1.6 4.8 0.00 0.08 0.03 92 1016.1
20260506123044 6 360 1.6 4.8 0.00 0.08 0.03 92 1016.0
20260506122530 6 360 1.6 4.8 0.00 0.08 0.03 92 1015.7
20260506122030 6 360 1.6 6.4 0.00 0.08 0.03 92 1015.7
20260506121553 6 360 1.6 6.4 0.00 0.08 0.03 93 1015.7
20260506121030 6 360 1.6 6.4 0.00 0.08 0.03 93 1015.8
20260506120530 6 360 3.2 6.4 0.00 0.08 0.03 93 1015.6
20260506120100 6 360 1.6 4.8 0.00 0.08 0.03 93 1015.5
20260506115531 6 360 1.6 4.8 0.00 0.08 0.03 93 1015.7
20260506115030 6 360 1.6 4.8 0.00 0.08 0.03 93 1015.6
20260506114541 6 360 1.6 4.8 0.00 0.08 0.03 93 1015.6
20260506114029 6 0 1.6 4.8 0.00 0.08 0.03 93 1015.4
20260506113529 6 360 1.6 4.8 0.00 0.08 0.03 93 1015.3
20260506113041 6 360 1.6 4.8 0.00 0.08 0.03 93 1015.2
20260506112528 6 360 1.6 3.2 0.00 0.08 0.03 93 1015.2
20260506112029 6 360 0.0 6.4 0.00 0.08 0.03 93 1015.2
20260506111547 6 360 1.6 6.4 0.00 0.08 0.03 93 1015.1
20260506111032 6 360 1.6 6.4 0.00 0.08 0.03 93 1015.0
20260506110532 6 360 0.0 3.2 0.00 0.08 0.03 93 1014.9
20260506110057 6 360 1.6 4.8 0.00 0.08 0.03 93 1014.7
20260506105534 6 360 1.6 4.8 0.00 0.18 0.03 93 1014.5
20260506105031 6 360 1.6 4.8 0.00 0.18 0.03 93 1014.4
20260506104557 6 360 1.6 3.2 0.00 0.18 0.03 93 1014.0
20260506104029 6 360 1.6 4.8 0.00 0.18 0.03 93 1013.9
20260506103530 6 360 0.0 4.8 0.00 0.18 0.03 93 1014.0
20260506103046 6 360 1.6 4.8 0.00 0.18 0.03 93 1013.8
20260506102533 6 0 1.6 4.8 0.00 0.18 0.03 93 1013.6
20260506102030 6 360 1.6 4.8 0.00 0.18 0.03 93 1013.5
20260506101541 6 360 1.6 6.4 0.00 0.18 0.03 93 1013.4
20260506101029 6 360 1.6 6.4 0.00 0.18 0.03 93 1013.3
20260506100533 6 360 1.6 6.4 0.00 0.18 0.03 93 1013.2
20260506100137 6 360 1.6 4.8 0.00 0.18 0.03 93 1013.0
20260506095530 6 360 1.6 6.4 0.00 0.56 0.03 94 1012.8
20260506095030 6 360 1.6 6.4 0.00 0.56 0.03 93 1012.4
20260506094543 6 360 1.6 6.4 0.00 0.56 0.03 94 1012.4
20260506094029 6 360 1.6 4.8 0.00 0.56 0.03 94 1012.5
20260506093532 6 360 1.6 4.8 0.00 0.56 0.03 94 1012.7
20260506093044 6 360 1.6 4.8 0.00 0.56 0.03 94 1012.8
20260506092530 6 0 1.6 4.8 0.00 0.56 0.03 94 1013.0
20260506092030 6 360 1.6 4.8 0.00 0.56 0.03 94 1013.1
20260506091541 6 0 1.6 4.8 0.00 0.56 0.03 94 1013.0
20260506091029 6 360 3.2 4.8 0.00 0.56 0.03 94 1012.9
20260506090529 6 360 1.6 6.4 0.00 0.56 0.03 94 1013.1
20260506090042 6 360 1.6 6.4 0.00 0.56 0.03 94 1012.8
20260506085532 6 360 3.2 6.4 0.03 1.04 0.03 94 1012.7
20260506085030 6 360 1.6 6.4 0.03 1.04 0.03 94 1012.7
20260506084612 6 360 3.2 6.4 0.03 1.04 0.03 94 1012.7
20260506084030 6 360 3.2 6.4 0.03 1.04 0.03 94 1012.6
20260506083530 6 360 1.6 4.8 0.03 1.04 0.03 94 1012.4
20260506083045 6 360 1.6 4.8 0.03 1.04 0.03 95 1012.2
20260506082530 6 360 1.6 4.8 0.03 1.04 0.03 95 1012.3
20260506082030 6 360 3.2 4.8 0.03 1.04 0.03 95 1012.2
20260506081554 6 360 0.0 4.8 0.03 1.04 0.03 95 1012.6
20260506081034 6 360 1.6 6.4 0.03 1.04 0.03 95 1012.4
20260506080530 6 360 0.0 6.4 0.03 1.04 0.03 95 1012.2
20260506073529 6 360 3.2 6.4 0.00 1.57 0.00 95 1011.9
20260506073044 6 360 1.6 8.0 0.00 1.57 0.00 95 1012.2
20260506072529 6 0 1.6 12.9 0.00 1.57 0.00 95 1011.9
20260506072031 6 360 3.2 12.9 0.00 1.57 0.00 95 1011.8
20260506071541 6 360 4.8 12.9 0.00 1.57 0.00 95 1011.8
20260506071030 6 360 3.2 6.4 0.00 1.57 0.00 95 1011.7
20260506070530 6 360 3.2 6.4 0.00 1.57 0.00 95 1012.4
20260506062030 6 360 1.6 6.4 0.00 1.60 0.00 95 1012.5
20260506061541 6 360 3.2 6.4 0.00 1.60 0.00 95 1012.5
20260506061030 6 360 3.2 6.4 0.00 1.60 0.00 95 1012.6
20260506060531 6 360 1.6 4.8 0.00 1.60 0.00 96 1012.6
20260506051029 6 360 1.6 6.4 0.00 1.60 0.00 95 1012.0
20260506050529 6 360 3.2 6.4 0.00 1.60 0.00 95 1012.0
20260506045029 7 360 3.2 6.4 0.00 1.60 1.60 95 1012.0
20260506044544 7 360 1.6 4.8 0.00 1.60 1.60 95 1012.0
20260506044029 7 0 0.0 4.8 0.00 1.60 1.60 96 1011.9
20260506043533 7 360 1.6 4.8 0.00 1.60 1.60 95 1011.9
20260506043045 7 360 1.6 4.8 0.00 1.60 1.60 95 1011.8
20260506042530 7 360 1.6 4.8 0.00 1.60 1.60 95 1012.0
20260506042030 7 360 1.6 9.7 0.00 1.60 1.60 95 1011.9
20260506041546 7 360 1.6 9.7 0.00 1.60 1.60 95 1011.7
20260506041029 7 360 3.2 8.0 0.00 1.60 1.60 95 1011.5
20260506040533 7 360 1.6 8.0 0.00 1.60 1.60 95 1011.7
20260506040042 7 360 4.8 8.0 0.00 1.60 1.60 95 1011.4
20260506035530 7 360 1.6 8.0 0.00 1.60 1.60 95 1011.5
20260506035030 7 360 1.6 9.7 0.00 1.60 1.60 95 1011.4
20260506034541 7 360 4.8 9.7 0.00 1.60 1.60 95 1011.2
20260506034030 7 360 3.2 6.4 0.00 1.60 1.60 95 1011.2
20260506033529 7 360 3.2 6.4 0.00 1.60 1.60 95 1011.2
20260506033036 7 360 3.2 9.7 0.00 1.60 1.60 95 1011.0
20260506032530 7 360 1.6 9.7 0.00 1.60 1.60 95 1011.0
20260506032030 7 360 3.2 6.4 0.00 1.60 1.60 96 1010.9
20260506031543 7 360 1.6 6.4 0.00 1.60 1.60 95 1010.9
20260506031029 7 360 1.6 6.4 0.00 1.60 1.60 95 1010.8
20260506030529 7 360 0.0 6.4 0.00 1.60 1.60 95 1010.8
20260506030043 7 360 1.6 4.8 0.00 1.60 1.60 96 1010.4
20260506025529 7 360 0.0 4.8 0.00 1.60 1.60 95 1010.8
20260506025028 7 360 3.2 4.8 0.00 1.60 1.60 95 1010.2
20260506024541 7 360 1.6 4.8 0.00 1.60 1.60 95 1010.3
20260506024029 7 360 3.2 4.8 0.00 1.60 1.60 95 1010.0
20260506023531 7 360 1.6 12.9 0.00 1.60 1.60 95 1010.0
20260506023058 7 0 1.6 12.9 0.00 1.60 1.60 95 1010.1
20260506022530 7 360 3.2 9.7 0.00 1.60 1.60 95 1010.0
20260506022028 7 360 3.2 8.0 0.00 1.60 1.60 95 1010.0
20260506021604 7 360 1.6 8.0 0.00 1.60 1.60 95 1010.2